This is the latest recevied weather packets stored in our database for station/object XE1GMR. If no packets are shown the sender has not sent any weather packets the latest 10 day(s).
| Time | Temp. | Humidity | Pressure | Rain* | Wind** | Luminosity | Snow |
|---|---|---|---|---|---|---|---|
| 1777559174 | 21.11° C | 36% | 1121 hPa | 0 mm | - | 371 W/m² | - |
| 1777558873 | 20.56° C | 37% | 1121 hPa | 0 mm | - | 346 W/m² | - |
| 1777558569 | 20° C | 38% | 1121.1 hPa | 0 mm | - | 337 W/m² | - |
| 1777558265 | 19.44° C | 38% | 1120.8 hPa | 0 mm | - | 322 W/m² | - |
| 1777557961 | 19.44° C | 38% | 1120.9 hPa | 0 mm | - | 290 W/m² | - |
| 1777557658 | 19.44° C | 39% | 1120.8 hPa | 0 mm | - | 292 W/m² | - |
| 1777557354 | 18.33° C | 40% | 1120.7 hPa | 0 mm | - | 272 W/m² | - |
| 1777557051 | 17.78° C | 41% | 1120.8 hPa | 0 mm | - | 243 W/m² | - |
| 1777556746 | 17.78° C | 41% | 1120.9 hPa | 0 mm | - | 220 W/m² | - |
| 1777556444 | 16.67° C | 44% | 1120.4 hPa | 0 mm | - | 202 W/m² | - |
| 1777556143 | 16.67° C | 44% | 1120.8 hPa | 0 mm | - | 175 W/m² | - |
| 1777555839 | 16.11° C | 46% | 1120.8 hPa | 0 mm | - | 168 W/m² | - |
| 1777555535 | 16.11° C | 45% | 1120.7 hPa | 0 mm | - | 157 W/m² | - |
| 1777555232 | 16.11° C | 46% | 1120.5 hPa | 0 mm | - | 136 W/m² | - |
| 1777554929 | 15.56° C | 47% | 1120.3 hPa | 0 mm | - | 120 W/m² | - |
| 1777554625 | 15.56° C | 47% | 1120.4 hPa | 0 mm | - | 99 W/m² | - |
| 1777554322 | 15° C | 48% | 1120.5 hPa | 0 mm | - | 86 W/m² | - |
| 1777554019 | 14.44° C | 49% | 1120.4 hPa | 0 mm | - | 52 W/m² | - |
| 1777553715 | 13.89° C | 50% | 1120.2 hPa | 0 mm | - | 46 W/m² | - |
| 1777553412 | 13.89° C | 50% | 1120.4 hPa | 0 mm | - | 41 W/m² | - |
| 1777553109 | 13.89° C | 51% | 1120.4 hPa | 0 mm | - | 35 W/m² | - |
| 1777552809 | 13.89° C | 51% | 1120.2 hPa | 0 mm | - | 31 W/m² | - |
| 1777552504 | 13.33° C | 52% | 1120.5 hPa | 0 mm | - | 26 W/m² | - |
| 1777552201 | 12.78° C | 53% | 1120.5 hPa | 0 mm | - | 21 W/m² | - |
| 1777551898 | 12.78° C | 53% | 1120.3 hPa | 0 mm | - | 16 W/m² | - |
* Rain latest hour (hover to see other rain measurements)
** Current wind speed in m/s (hover to see current wind gust speed)